Regional Weather Roundup
Issued by NWS

Home | Current Version | Previous Version | Graphics & Text | Print | Product List | Glossary On
Versions: 1 2 3 4 5 6 7 8 9 10 11 12 13 14 15 16 17 18 19 20 21 22 23 24 25 26 27 28 29 30 31 32 33 34 35 36 37 38 39 40 41 42 43 44 45 46 47 48 49 50
000
ASUS43 KLOT 290903
RWRIL

ILLINOIS REGIONAL WEATHER ROUNDUP
NATIONAL WEATHER SERVICE CHICAGO/ROMEOVILLE IL
400 AM CDT FRI JUL 29 2016

NOTE: "FAIR" INDICATES FEW OR NO CLOUDS BELOW 12,000 FEET WITH NO
SIGNIFICANT WEATHER AND/OR OBSTRUCTIONS TO VISIBILITY.

* THESE STATIONS ARE NOT UNDER NWS QUALITY CONTROL. THEY ALSO MAY NOT
  REPORT WEATHER SUCH AS PRECIPITATION OR FOG.

ILZ001-002-007-009-015-016-024-291000-
NORTHWEST ILLINOIS

CITY           SKY/WX    TMP DP  RH WIND       PRES   REMARKS
MOLINE         CLOUDY    70  67  90 NW6       29.91S
STERLING*      FOG       69  69 100 E7        29.92S VSB 1/4
SAVANNA*       CLOUDY    69  67  93 NE8       29.92S
$$

ILZ003-004-008-010-011-017-018-291000-
NORTH CENTRAL ILLINOIS

CITY           SKY/WX    TMP DP  RH WIND       PRES   REMARKS
ROCKFORD       CLOUDY    69  64  84 N9        29.94F
FREEPORT*      CLOUDY    66  64  94 NE7       29.96S
ROCHELLE*      CLOUDY    68  68  99 NE7       29.93S FOG
$$

ILZ005-006-012>014-019>023-291000-
NORTHEAST ILLINOIS

CITY           SKY/WX    TMP DP  RH WIND       PRES   REMARKS
CHICAGO-OHARE  CLOUDY    70  68  93 N8        29.91S
CHICAGO-MIDWAY MOCLDY    72  68  87 N3        29.90F
AURORA         CLOUDY    70  69  97 NE7       29.92S FOG
LANSING*       MOCLDY    70  66  88 CALM      29.91S
WAUKEGAN       MOCLDY    69  68  96 N3        29.91F
DUPAGE AIRPORT CLOUDY    70  68  93 NE6       29.92S FOG
KANKAKEE*      FOG       69  68  97 CALM      29.91R VSB 1/4
WHEELING       CLOUDY    70  68  93 NE5       29.92F
MORRIS*        FOG       70  69  97 CALM      29.90S VSB 1/2
NORTHERLY ISL    N/A     71  68  90 N3          N/A
$$

LMZ740>746-291000-
SOUTHERN LAKE MICHIGAN

STATION/POSITION SKY/WX   TEMP    WIND        PRES    VSBY  WAVE
                          AIR SEA DIR/SP/G                  HT/PER
                          (F)     (DEG/KT/KT) (MB)    (MI)  (FT/S)
SOUTHERN BUOY              74 75   80/  8/ 10 1012.8          2/ 6
WILMETTE HARBOR            74 72  100/  6/  8   N/A           3/ 6
HARRISON CRIB              73     350/  7/  8   N/A
BURNHAM HARBOR             71     330/  3/  6   N/A
CALUMET HARBOR             72     340/  4/  6 1012.2F
BURNS HARBOR               74      50/  9/ 10 1013.2S
MICHIGAN CITY              73      20/  8/  8   N/A
MICHIGAN CITY 6N           74 77   50/  8/ 10   N/A           2/ 6
ST. JOSEPH                 71 77   80/  6/  8 1012.7S         2
$$

ILZ025>027-034>036-040-047-049-050-058-095>099-291000-
WEST-CENTRAL ILLINOIS

CITY           SKY/WX    TMP DP  RH WIND       PRES   REMARKS
QUINCY         PTCLDY    67  67 100 NW5       29.92F
GALESBURG*     PTCLDY    65  65  97 W3        29.92S
MACOMB*        PTCLDY    64  64  98 NW5       29.94S
JACKSONVILLE*  CLEAR     66  64  96 W7        29.92S
PITTSFIELD*    CLEAR     67  66  94 CALM      29.93F
$$

ILZ028>032-037-038-041>044-048-051>054-059>061-291000-
CENTRAL ILLINOIS

CITY           SKY/WX    TMP DP  RH WIND       PRES   REMARKS
PONTIAC        FOG       68  68 100 NE3       29.91S VSB 1/4
BLOOMINGTON    CLEAR     69  67  93 SW3       29.91F
DECATUR        CLEAR     72  68  87 NW6       29.90F
PEORIA         PTCLDY    69  67  93 NW3       29.90F
LACON*         CLOUDY    68  67  97 CALM      29.89F FOG
LINCOLN*       CLEAR     68  68 100 CALM      29.90F
SPRINGFIELD    CLEAR     69  67  93 CALM      29.91F
TAYLORVILLE    PTCLDY    68  68  99 MISG      29.91S
$$

ILZ033-039-045-046-055>057-062-063-291000-
EAST-CENTRAL ILLINOIS

CITY           SKY/WX    TMP DP  RH WIND       PRES   REMARKS
CHAMPAIGN      FOG       67  66  97 W3        29.90S VSB 1/2
MATTOON        CLEAR     67  65  93 CALM      29.90S
$$

ILZ079-100>102-291000-
SOUTHWEST ILLINOIS

CITY           SKY/WX    TMP DP  RH WIND       PRES   REMARKS
ALTON          PTCLDY    72  69  91 CALM      29.92R
CAHOKIA*       MOCLDY    75  70  84 N5        29.90F
SPARTA*        CLOUDY    73  72  96 CALM      29.91S
$$

ILZ064>066-069>071-074>076-080>082-084>086-088>090-092>094-291000-
SOUTH-CENTRAL ILLINOIS

CITY           SKY/WX    TMP DP  RH WIND       PRES   REMARKS
CARBONDALE     CLOUDY    71  69  93 S3        29.90S
CAIRO*         CLOUDY    73  73  97 S5        29.90F
EFFINGHAM*     CLEAR     68  68 100 CALM      29.91F FOG
MARION           N/A     72  72 100 CALM      29.91F FOG
MT. VERNON     CLEAR     70  64  83 MISG      29.90S
CENTRALIA*     CLEAR     69  69 100 W3        29.90S FOG
SALEM*           N/A     69  67  94 CALM      29.90S FOG
METROPOLIS*    PTCLDY    72  72  99 CALM      29.92R FOG
$$

ILZ067-068-072-073-078-083-087-091-291000-
SOUTHEAST ILLINOIS

CITY           SKY/WX    TMP DP  RH WIND       PRES   REMARKS
LAWRENCEVILLE  PTCLDY    69  68  96 CALM      29.90F FOG
FLORA*         FOG       70  69  98 CALM      29.90F VSB 1/2
FAIRFIELD*     PTCLDY    69  69 100 CALM      29.89S FOG
HARRISBURG*    MOCLDY    71  71 100 CALM      29.90S FOG
ROBINSON*      CLEAR     67  66  99 CALM      29.90F
CARMI*         CLEAR     69  69 100 CALM      29.89S FOG
$$

ABBREVIATIONS USED IN REMARKS
   TC - TEMPERATURE IN CELSIUS
  WCI - WIND CHILL INDEX
   HX - HEAT INDEX
  VSB - VISIBILITY
$$





USA.gov is the U.S. government's official web portal to all federal, state and local government web resources and services.